CW4354 Weather Reports


time (UTC)temp
C
wind
direction
speed
KPH
gust
KPH
rain 1hr
cm
rain 24hr
cm
rain mn
cm
humidity
%
barometer
mb
20260505221557 26 0 0.0 6.4 0.00 0.03 0.03 38 1007.7
20260505220053 26 0 0.0 1.6 0.00 0.03 0.03 35 1007.8
20260505214547 26 0 0.0 3.2 0.00 0.03 0.03 36 1007.8
20260505213045 26 0 0.0 16.1 0.00 0.03 0.03 34 1007.6
20260505211543 27 0 0.0 9.7 0.00 0.03 0.03 33 1007.4
20260505210041 27 0 1.6 14.5 0.00 0.03 0.03 34 1007.2
20260505204553 27 296 1.6 4.8 0.00 0.03 0.03 32 1007.4
20260505203056 28 0 0.0 4.8 0.00 0.03 0.03 33 1007.5
20260505201548 28 239 3.2 11.3 0.00 0.03 0.03 31 1007.3
20260505200050 28 142 3.2 16.1 0.00 0.03 0.03 34 1007.4
20260505194604 28 0 0.0 14.5 0.00 0.03 0.03 34 1007.4
20260505193049 28 0 0.0 0.0 0.00 0.03 0.03 34 1007.4
20260505191604 28 0 0.0 0.0 0.00 0.03 0.03 34 1007.7
20260505190050 28 0 0.0 0.0 0.00 0.03 0.03 34 1007.7
20260505184547 28 0 0.0 0.0 0.00 0.03 0.03 34 1008.0
20260505183042 28 0 0.0 0.0 0.00 0.03 0.03 38 1008.3
20260505181552 28 0 0.0 0.0 0.00 0.03 0.03 34 1008.4
20260505180056 28 0 0.0 4.8 0.00 0.03 0.03 37 1008.5
20260505174552 28 0 0.0 12.9 0.00 0.03 0.03 36 1008.5
20260505173108 27 0 0.0 3.2 0.00 0.03 0.03 40 1008.5
20260505171608 28 0 0.0 4.8 0.00 0.03 0.03 44 1008.8
20260505170049 27 0 0.0 0.0 0.00 0.03 0.03 45 1009.0
20260505164543 27 0 0.0 1.6 0.00 0.03 0.03 45 1009.1
20260505163042 27 282 0.0 1.6 0.00 0.03 0.03 45 1009.4
20260505161553 26 0 0.0 1.6 0.00 0.03 0.03 46 1009.5
20260505153042 25 0 0.0 0.0 0.00 0.03 0.03 51 1009.9
20260505151541 24 0 0.0 0.0 0.00 0.03 0.03 53 1010.1
20260505124550 16 0 0.0 0.0 0.00 0.03 0.03 82 1011.1
20260505123058 15 0 0.0 0.0 0.00 0.03 0.03 90 1011.1
20260505121617 13 0 0.0 0.0 0.00 0.03 0.03 97 1011.1
20260505120051 12 0 0.0 0.0 0.00 0.03 0.03 97 1010.8
20260505114541 12 0 0.0 0.0 0.00 0.03 0.03 97 1010.8
20260505113048 11 0 0.0 0.0 0.00 0.03 0.03 97 1011.0
20260505111548 10 0 0.0 0.0 0.00 0.03 0.03 96 1011.1
20260505101546 10 0 0.0 0.0 0.03 0.03 0.03 94 1010.9
20260505100123 10 0 0.0 0.0 0.03 0.03 0.03 93 1011.0
20260505094550 10 0 0.0 0.0 0.03 0.03 0.03 92 1010.6
20260505093052 9 0 0.0 0.0 0.00 0.00 0.00 90 1011.0
20260505091602 9 0 0.0 0.0 0.00 0.00 0.00 90 1010.4
20260505090058 10 0 0.0 0.0 0.00 0.00 0.00 89 1010.2
20260505084540 10 0 0.0 0.0 0.00 0.00 0.00 89 1010.1
20260505083052 9 0 0.0 0.0 0.00 0.00 0.00 89 1010.0
20260505081546 10 0 0.0 0.0 0.00 0.00 0.00 88 1010.1
20260505080049 10 0 0.0 0.0 0.00 0.00 0.00 88 1010.1
20260505074549 10 0 0.0 0.0 0.00 0.00 0.00 88 1010.0
20260505073057 9 0 0.0 0.0 0.00 0.00 0.00 88 1009.9
20260505071547 9 0 0.0 0.0 0.00 0.00 0.00 88 1010.0
20260505070047 9 0 0.0 0.0 0.00 0.00 0.00 88 1010.1
20260505064542 8 0 0.0 0.0 0.00 0.00 0.00 88 1010.0
20260505063048 8 0 0.0 0.0 0.00 0.00 0.00 87 1010.1
20260505061552 8 0 0.0 0.0 0.00 0.00 0.00 86 1010.0
20260505060046 8 0 0.0 0.0 0.00 0.00 0.00 86 1010.1
20260505054612 8 0 0.0 0.0 0.00 0.00 0.00 85 1010.1
20260505053047 8 0 0.0 0.0 0.00 0.00 0.00 85 1010.1
20260505051551 8 0 0.0 0.0 0.00 0.00 0.00 84 1010.0
20260505041600 9 0 0.0 0.0 0.00 0.00 0.00 82 1009.9
20260505040043 9 0 0.0 0.0 0.00 0.00 0.00 82 1009.9
20260505034550 9 0 0.0 0.0 0.00 0.00 0.00 82 1009.9
20260505033049 10 0 0.0 0.0 0.00 0.00 0.00 81 1009.8
20260505031543 10 0 0.0 0.0 0.00 0.00 0.00 81 1010.0
20260505030100 10 0 0.0 0.0 0.00 0.00 0.00 80 1010.0
20260505024545 10 0 0.0 0.0 0.00 0.00 0.00 78 1010.1
20260505023043 10 0 0.0 0.0 0.00 0.00 0.00 77 1010.0
20260505021555 11 0 0.0 0.0 0.00 0.00 0.00 75 1010.1
20260505020051 11 0 0.0 0.0 0.00 0.00 0.00 73 1010.1
20260505014540 12 0 0.0 0.0 0.00 0.00 0.00 72 1010.1
20260505013047 12 0 0.0 0.0 0.00 0.00 0.00 69 1010.1
20260505011542 13 0 0.0 0.0 0.00 0.00 0.00 67 1009.9
20260505010107 13 0 0.0 0.0 0.00 0.00 0.00 64 1009.7
20260505004549 14 0 0.0 0.0 0.00 0.00 0.00 62 1009.7
20260505003051 15 0 0.0 0.0 0.00 0.00 0.00 59 1009.6
20260505001545 16 0 0.0 0.0 0.00 0.00 0.00 55 1009.4
20260505000052 18 0 0.0 0.0 0.00 0.00 0.00 50 1009.2
20260504234551 19 0 0.0 0.0 0.00 0.00 0.00 47 1009.0
20260504233054 20 0 0.0 0.0 0.00 0.00 0.00 45 1008.7
20260504231546 20 0 0.0 0.0 0.00 0.00 0.00 43 1008.6
20260504230107 21 0 0.0 3.2 0.00 0.00 0.00 42 1008.6
20260504224601 21 0 0.0 0.0 0.00 0.00 0.00 42 1008.5
20260504223043 22 0 0.0 3.2 0.00 0.00 0.00 38 1008.4